| time (UTC) | temp F | wind direction | speed MPH | gust MPH | rain 1hr in | rain 24hr in | rain mn in | humidity % | barometer mb |
| 20260831030726 | 59 | 100 | 1.0 | 7.0 | 0.00 | 0.00 | 0.00 | 86 | 1011.2 |
| 20260831025726 | 59 | 244 | 1.0 | 4.0 | 0.00 | 0.00 | 0.00 | 85 | 1011.0 |
| 20260831024726 | 59 | 46 | 1.0 | 3.0 | 0.00 | 0.00 | 0.00 | 85 | 1011.0 |
| 20260831023726 | 59 | 61 | 0.0 | 2.0 | 0.00 | 0.00 | 0.00 | 85 | 1011.0 |
| 20260831022726 | 59 | 119 | 2.0 | 6.0 | 0.00 | 0.00 | 0.00 | 85 | 1011.0 |
| 20260831021726 | 59 | 98 | 3.0 | 7.0 | 0.00 | 0.00 | 0.00 | 85 | 1011.2 |
| 20260831020726 | 59 | 36 | 4.0 | 7.0 | 0.00 | 0.00 | 0.00 | 85 | 1011.4 |
| 20260831015726 | 59 | 66 | 2.0 | 8.0 | 0.00 | 0.00 | 0.00 | 85 | 1011.6 |
| 20260831014726 | 59 | 86 | 0.0 | 4.0 | 0.00 | 0.00 | 0.00 | 86 | 1011.5 |
| 20260831013726 | 58 | 164 | 0.0 | 2.0 | 0.00 | 0.00 | 0.00 | 86 | 1011.5 |
| 20260831012726 | 58 | 115 | 0.0 | 4.0 | 0.00 | 0.00 | 0.00 | 86 | 1011.7 |
| 20260831011726 | 58 | 171 | 0.0 | 1.0 | 0.00 | 0.00 | 0.00 | 86 | 1011.9 |
| 20260831010726 | 58 | 171 | 0.0 | 1.0 | 0.00 | 0.00 | 0.00 | 86 | 1011.9 |
| 20260831005726 | 59 | 171 | 0.0 | 4.0 | 0.00 | 0.00 | 0.00 | 85 | 1011.9 |
| 20260831004726 | 59 | 171 | 0.0 | 4.0 | 0.00 | 0.00 | 0.00 | 85 | 1011.9 |
| 20260831003726 | 59 | 210 | 1.0 | 3.0 | 0.00 | 0.00 | 0.00 | 85 | 1012.0 |
| 20260831002726 | 59 | 112 | 0.0 | 0.0 | 0.00 | 0.00 | 0.00 | 85 | 1011.7 |
| 20260831001726 | 59 | 111 | 0.0 | 3.0 | 0.00 | 0.00 | 0.00 | 85 | 1011.9 |
| 20260831000726 | 60 | 82 | 0.0 | 0.0 | 0.00 | 0.00 | 0.00 | 84 | 1012.0 |
| 20260830235726 | 60 | 82 | 0.0 | 0.0 | 0.00 | 0.00 | 0.00 | 84 | 1011.9 |
| 20260830234726 | 60 | 82 | 0.0 | 4.0 | 0.00 | 0.00 | 0.00 | 84 | 1012.0 |
| 20260830233726 | 60 | 149 | 0.0 | 0.0 | 0.00 | 0.00 | 0.00 | 84 | 1012.1 |
| 20260830232726 | 60 | 173 | 0.0 | 0.0 | 0.00 | 0.00 | 0.00 | 84 | 1012.1 |
| 20260830231726 | 61 | 59 | 0.0 | 0.0 | 0.00 | 0.00 | 0.00 | 83 | 1012.2 |
| 20260830230726 | 61 | 42 | 0.0 | 0.0 | 0.00 | 0.00 | 0.00 | 83 | 1012.4 |
| 20260830225726 | 61 | 101 | 0.0 | 2.0 | 0.00 | 0.00 | 0.00 | 83 | 1012.5 |
| 20260830224726 | 61 | 92 | 1.0 | 0.0 | 0.00 | 0.00 | 0.00 | 82 | 1012.6 |
| 20260830223726 | 61 | 79 | 1.0 | 5.0 | 0.00 | 0.00 | 0.00 | 82 | 1012.7 |
| 20260830222726 | 61 | 82 | 1.0 | 3.0 | 0.00 | 0.00 | 0.00 | 81 | 1012.7 |
| 20260830221726 | 62 | 77 | 2.0 | 5.0 | 0.00 | 0.00 | 0.00 | 81 | 1012.8 |
| 20260830220726 | 62 | 88 | 0.0 | 4.0 | 0.00 | 0.00 | 0.00 | 81 | 1012.8 |
| 20260830215726 | 62 | 90 | 2.0 | 7.0 | 0.00 | 0.00 | 0.00 | 81 | 1012.8 |
| 20260830214727 | 62 | 88 | 0.0 | 4.0 | 0.00 | 0.00 | 0.00 | 81 | 1012.8 |
| 20260830213727 | 61 | 91 | 0.0 | 2.0 | 0.00 | 0.00 | 0.00 | 82 | 1012.7 |
| 20260830212727 | 62 | 92 | 0.0 | 0.0 | 0.00 | 0.00 | 0.00 | 80 | 1012.6 |
| 20260830211727 | 62 | 88 | 0.0 | 1.0 | 0.00 | 0.00 | 0.00 | 80 | 1012.8 |
| 20260830210727 | 62 | 101 | 0.0 | 3.0 | 0.00 | 0.00 | 0.00 | 80 | 1012.7 |
| 20260830205727 | 62 | 127 | 0.0 | 0.0 | 0.00 | 0.00 | 0.00 | 80 | 1012.8 |
| 20260830204727 | 62 | 128 | 0.0 | 0.0 | 0.00 | 0.00 | 0.00 | 80 | 1012.8 |
| 20260830203727 | 62 | 128 | 0.0 | 0.0 | 0.00 | 0.00 | 0.00 | 79 | 1012.8 |
| 20260830202727 | 63 | 128 | 0.0 | 0.0 | 0.00 | 0.00 | 0.00 | 78 | 1012.9 |
| 20260830201727 | 63 | 128 | 0.0 | 0.0 | 0.00 | 0.00 | 0.00 | 77 | 1013.0 |
| 20260830200727 | 63 | 128 | 0.0 | 0.0 | 0.00 | 0.00 | 0.00 | 76 | 1013.0 |
| 20260830195727 | 64 | 255 | 0.0 | 0.0 | 0.00 | 0.00 | 0.00 | 75 | 1013.0 |
| 20260830194727 | 64 | 255 | 0.0 | 0.0 | 0.00 | 0.00 | 0.00 | 74 | 1013.0 |
| 20260830193727 | 65 | 255 | 0.0 | 0.0 | 0.00 | 0.00 | 0.00 | 73 | 1013.0 |
| 20260830192727 | 65 | 255 | 0.0 | 0.0 | 0.00 | 0.00 | 0.00 | 71 | 1013.1 |
| 20260830191727 | 65 | 255 | 0.0 | 0.0 | 0.00 | 0.00 | 0.00 | 71 | 1013.1 |
| 20260830190727 | 66 | 255 | 0.0 | 0.0 | 0.00 | 0.00 | 0.00 | 70 | 1013.1 |
| 20260830185727 | 66 | 257 | 0.0 | 0.0 | 0.00 | 0.00 | 0.00 | 71 | 1013.1 |
| 20260830184727 | 66 | 257 | 0.0 | 0.0 | 0.00 | 0.00 | 0.00 | 70 | 1013.0 |
| 20260830183727 | 66 | 257 | 0.0 | 0.0 | 0.00 | 0.00 | 0.00 | 69 | 1013.0 |
| 20260830182727 | 67 | 257 | 0.0 | 0.0 | 0.00 | 0.00 | 0.00 | 69 | 1013.0 |
| 20260830181727 | 67 | 257 | 0.0 | 0.0 | 0.00 | 0.00 | 0.00 | 68 | 1012.8 |
| 20260830180727 | 67 | 257 | 0.0 | 0.0 | 0.00 | 0.00 | 0.00 | 67 | 1012.7 |
| 20260830175727 | 68 | 257 | 0.0 | 0.0 | 0.00 | 0.00 | 0.00 | 66 | 1012.6 |
| 20260830174727 | 69 | 258 | 0.0 | 0.0 | 0.00 | 0.00 | 0.00 | 65 | 1012.6 |
| 20260830173728 | 69 | 248 | 2.0 | 3.0 | 0.00 | 0.00 | 0.00 | 64 | 1012.5 |
| 20260830172727 | 69 | 270 | 2.0 | 5.0 | 0.00 | 0.00 | 0.00 | 63 | 1012.5 |
| 20260830171727 | 70 | 215 | 5.0 | 4.0 | 0.00 | 0.00 | 0.00 | 63 | 1012.5 |
| 20260830170727 | 70 | 253 | 7.0 | 10.0 | 0.00 | 0.00 | 0.00 | 62 | 1012.5 |
| 20260830165727 | 70 | 255 | 5.0 | 12.0 | 0.00 | 0.00 | 0.00 | 62 | 1012.5 |
| 20260830164727 | 70 | 233 | 5.0 | 8.0 | 0.00 | 0.00 | 0.00 | 62 | 1012.6 |
| 20260830163727 | 71 | 244 | 6.0 | 11.0 | 0.00 | 0.00 | 0.00 | 61 | 1012.5 |
| 20260830162727 | 71 | 229 | 7.0 | 13.0 | 0.00 | 0.00 | 0.00 | 61 | 1012.6 |
| 20260830161727 | 71 | 223 | 6.0 | 11.0 | 0.00 | 0.00 | 0.00 | 61 | 1012.6 |
| 20260830160727 | 71 | 258 | 8.0 | 14.0 | 0.00 | 0.00 | 0.00 | 61 | 1012.6 |
| 20260830155727 | 71 | 232 | 8.0 | 15.0 | 0.00 | 0.00 | 0.00 | 61 | 1012.5 |
| 20260830154727 | 71 | 275 | 8.0 | 15.0 | 0.00 | 0.00 | 0.00 | 61 | 1012.6 |
| 20260830153727 | 71 | 219 | 7.0 | 11.0 | 0.00 | 0.00 | 0.00 | 62 | 1012.6 |
| 20260830152727 | 71 | 289 | 7.0 | 17.0 | 0.00 | 0.00 | 0.00 | 61 | 1012.6 |
| 20260830151727 | 71 | 231 | 8.0 | 13.0 | 0.00 | 0.00 | 0.00 | 62 | 1012.6 |
| 20260830150727 | 71 | 240 | 9.0 | 13.0 | 0.00 | 0.00 | 0.00 | 63 | 1012.7 |
| 20260830145727 | 71 | 238 | 8.0 | 16.0 | 0.00 | 0.00 | 0.00 | 63 | 1012.6 |
| 20260830144727 | 71 | 248 | 9.0 | 17.0 | 0.00 | 0.00 | 0.00 | 63 | 1012.6 |
| 20260830143727 | 71 | 263 | 10.0 | 14.0 | 0.00 | 0.00 | 0.00 | 63 | 1012.5 |
| 20260830142727 | 70 | 257 | 11.0 | 24.0 | 0.00 | 0.00 | 0.00 | 62 | 1012.4 |
| 20260830141727 | 70 | 238 | 12.0 | 20.0 | 0.00 | 0.00 | 0.00 | 63 | 1012.5 |
| 20260830140728 | 70 | 242 | 10.0 | 17.0 | 0.00 | 0.00 | 0.00 | 63 | 1012.5 |
| 20260830135728 | 71 | 263 | 10.0 | 14.0 | 0.00 | 0.00 | 0.00 | 63 | 1012.3 |
| 20260830134728 | 70 | 221 | 10.0 | 18.0 | 0.00 | 0.00 | 0.00 | 62 | 1012.3 |
| 20260830133728 | 71 | 264 | 11.0 | 17.0 | 0.00 | 0.00 | 0.00 | 62 | 1012.3 |
| 20260830132728 | 71 | 262 | 11.0 | 17.0 | 0.00 | 0.00 | 0.00 | 62 | 1012.2 |
| 20260830131728 | 71 | 229 | 10.0 | 20.0 | 0.00 | 0.00 | 0.00 | 62 | 1012.1 |
| 20260830130728 | 71 | 321 | 10.0 | 15.0 | 0.00 | 0.00 | 0.00 | 62 | 1012.0 |
| 20260830125728 | 71 | 244 | 10.0 | 17.0 | 0.00 | 0.00 | 0.00 | 63 | 1012.0 |
| 20260830124728 | 71 | 281 | 10.0 | 18.0 | 0.00 | 0.00 | 0.00 | 62 | 1012.1 |
| 20260830123728 | 71 | 299 | 9.0 | 20.0 | 0.00 | 0.00 | 0.00 | 62 | 1012.0 |
| 20260830122728 | 71 | 249 | 11.0 | 18.0 | 0.00 | 0.00 | 0.00 | 64 | 1011.9 |
| 20260830121728 | 70 | 223 | 10.0 | 15.0 | 0.00 | 0.00 | 0.00 | 63 | 1011.8 |
| 20260830120728 | 70 | 214 | 10.0 | 20.0 | 0.00 | 0.00 | 0.00 | 64 | 1011.7 |
| 20260830115728 | 70 | 267 | 10.0 | 16.0 | 0.00 | 0.00 | 0.00 | 63 | 1011.7 |
| 20260830114728 | 71 | 287 | 11.0 | 20.0 | 0.00 | 0.00 | 0.00 | 61 | 1011.7 |
| 20260830113728 | 71 | 257 | 12.0 | 18.0 | 0.00 | 0.00 | 0.00 | 59 | 1011.4 |
| 20260830112728 | 72 | 265 | 10.0 | 16.0 | 0.00 | 0.00 | 0.00 | 59 | 1011.3 |
| 20260830111728 | 71 | 261 | 9.0 | 16.0 | 0.00 | 0.00 | 0.00 | 60 | 1011.4 |
| 20260830110728 | 71 | 254 | 10.0 | 13.0 | 0.00 | 0.00 | 0.00 | 60 | 1011.4 |
| 20260830105728 | 71 | 268 | 10.0 | 18.0 | 0.00 | 0.00 | 0.00 | 59 | 1011.4 |
| 20260830104728 | 71 | 244 | 12.0 | 19.0 | 0.00 | 0.00 | 0.00 | 59 | 1011.4 |
| 20260830103728 | 71 | 264 | 10.0 | 24.0 | 0.00 | 0.00 | 0.00 | 59 | 1011.4 |
| 20260830102728 | 71 | 240 | 9.0 | 20.0 | 0.00 | 0.00 | 0.00 | 60 | 1011.4 |
| 20260830101728 | 71 | 238 | 10.0 | 19.0 | 0.00 | 0.00 | 0.00 | 60 | 1011.3 |
| 20260830100728 | 71 | 257 | 9.0 | 14.0 | 0.00 | 0.00 | 0.00 | 60 | 1011.3 |
| 20260830095728 | 70 | 235 | 10.0 | 14.0 | 0.00 | 0.00 | 0.00 | 61 | 1011.3 |
| 20260830094728 | 70 | 247 | 13.0 | 21.0 | 0.00 | 0.00 | 0.00 | 61 | 1011.3 |
| 20260830093728 | 69 | 229 | 15.0 | 20.0 | 0.00 | 0.00 | 0.00 | 61 | 1011.2 |
| 20260830092728 | 70 | 249 | 12.0 | 26.0 | 0.00 | 0.00 | 0.00 | 61 | 1011.2 |
| 20260830091728 | 70 | 246 | 12.0 | 18.0 | 0.00 | 0.00 | 0.00 | 62 | 1011.1 |
| 20260830090728 | 70 | 254 | 12.0 | 24.0 | 0.00 | 0.00 | 0.00 | 62 | 1011.0 |
| 20260830085728 | 70 | 261 | 11.0 | 18.0 | 0.00 | 0.00 | 0.00 | 64 | 1010.9 |
| 20260830084728 | 69 | 258 | 11.0 | 22.0 | 0.00 | 0.00 | 0.00 | 64 | 1010.9 |
| 20260830083728 | 69 | 243 | 10.0 | 18.0 | 0.00 | 0.00 | 0.00 | 65 | 1010.8 |
| 20260830082728 | 69 | 260 | 10.0 | 17.0 | 0.00 | 0.00 | 0.00 | 67 | 1010.9 |
| 20260830081728 | 69 | 256 | 9.0 | 22.0 | 0.00 | 0.00 | 0.00 | 68 | 1010.6 |
| 20260830080728 | 68 | 252 | 8.0 | 16.0 | 0.00 | 0.00 | 0.00 | 70 | 1010.5 |
| 20260830075728 | 68 | 297 | 7.0 | 20.0 | 0.00 | 0.00 | 0.00 | 71 | 1010.6 |
| 20260830074728 | 68 | 240 | 5.0 | 10.0 | 0.00 | 0.00 | 0.00 | 75 | 1010.5 |
| 20260830073728 | 67 | 194 | 8.0 | 19.0 | 0.00 | 0.00 | 0.00 | 74 | 1010.5 |
| 20260830072728 | 67 | 296 | 2.0 | 7.0 | 0.00 | 0.00 | 0.00 | 78 | 1010.3 |
| 20260830071728 | 67 | 269 | 3.0 | 8.0 | 0.00 | 0.00 | 0.00 | 79 | 1010.1 |
| 20260830070729 | 67 | 331 | 3.0 | 8.0 | 0.00 | 0.00 | 0.00 | 80 | 1010.1 |
| 20260830065729 | 67 | 261 | 3.0 | 8.0 | 0.00 | 0.00 | 0.00 | 80 | 1010.1 |
| 20260830064729 | 67 | 292 | 3.0 | 9.0 | 0.00 | 0.00 | 0.00 | 80 | 1010.1 |
| 20260830063729 | 67 | 302 | 4.0 | 10.0 | 0.00 | 0.00 | 0.00 | 80 | 1010.0 |
| 20260830062729 | 67 | 296 | 3.0 | 7.0 | 0.00 | 0.00 | 0.00 | 80 | 1010.0 |
| 20260830061729 | 66 | 303 | 5.0 | 8.0 | 0.00 | 0.00 | 0.00 | 80 | 1010.0 |
| 20260830060729 | 66 | 292 | 4.0 | 9.0 | 0.00 | 0.00 | 0.00 | 80 | 1009.8 |
| 20260830055729 | 67 | 275 | 4.0 | 7.0 | 0.00 | 0.00 | 0.00 | 80 | 1009.7 |
| 20260830054729 | 66 | 296 | 4.0 | 5.0 | 0.00 | 0.00 | 0.00 | 80 | 1009.7 |
| 20260830053729 | 66 | 269 | 3.0 | 7.0 | 0.00 | 0.00 | 0.00 | 80 | 1009.7 |
| 20260830052729 | 66 | 309 | 3.0 | 8.0 | 0.00 | 0.00 | 0.00 | 81 | 1009.8 |
| 20260830051729 | 65 | 242 | 2.0 | 8.0 | 0.00 | 0.00 | 0.00 | 81 | 1009.7 |
| 20260830050729 | 65 | 209 | 1.0 | 9.0 | 0.00 | 0.00 | 0.00 | 82 | 1009.7 |
| 20260830045729 | 65 | 290 | 1.0 | 3.0 | 0.00 | 0.00 | 0.00 | 83 | 1009.7 |
| 20260830044729 | 65 | 305 | 1.0 | 5.0 | 0.00 | 0.00 | 0.00 | 83 | 1009.6 |
| 20260830043729 | 65 | 261 | 1.0 | 4.0 | 0.00 | 0.00 | 0.00 | 83 | 1009.5 |
| 20260830042729 | 66 | 275 | 4.0 | 12.0 | 0.00 | 0.00 | 0.00 | 81 | 1009.6 |
| 20260830041729 | 66 | 271 | 3.0 | 6.0 | 0.00 | 0.00 | 0.00 | 81 | 1009.4 |
| 20260830040729 | 66 | 287 | 4.0 | 6.0 | 0.00 | 0.00 | 0.00 | 81 | 1009.5 |
| 20260830035729 | 66 | 250 | 3.0 | 14.0 | 0.00 | 0.00 | 0.00 | 81 | 1009.5 |
| 20260830034729 | 65 | 314 | 3.0 | 6.0 | 0.00 | 0.00 | 0.00 | 81 | 1009.5 |
| 20260830033729 | 65 | 222 | 2.0 | 9.0 | 0.00 | 0.00 | 0.00 | 82 | 1009.4 |
| 20260830032729 | 66 | 292 | 6.0 | 13.0 | 0.00 | 0.00 | 0.00 | 81 | 1009.3 |
| 20260830031729 | 66 | 261 | 4.0 | 11.0 | 0.00 | 0.00 | 0.00 | 78 | 1009.4 |